Regional Weather Roundup
Issued by NWS

Home | Current Version | Previous Version | Text Only | Print | Product List | Glossary On
Versions: 1 2 3 4 5 6 7 8 9 10 11 12 13 14 15 16 17 18 19 20 21 22 23 24 25 26 27 28 29 30 31 32 33 34 35 36 37 38 39 40 41 42 43 44 45 46 47 48 49 50
000
ASUS44 KOUN 200410
RWROK

WEATHER ROUNDUP FOR OKLAHOMA
NATIONAL WEATHER SERVICE NORMAN OK
1100 PM CDT TUE AUG 19 2014

NOTE: "FAIR" INDICATES FEW OR NO CLOUDS BELOW 12,000 FEET WITH NO
      SIGNIFICANT WEATHER AND/OR OBSTRUCTIONS TO VISIBILITY.

OKZ001>007-009>012-014-015-017-200500-
NORTHWEST OKLAHOMA AND THE PANHANDLE

CITY           SKY/WX    TMP DP  RH WIND       PRES   REMARKS
GAGE           CLEAR     81  61  50 S14       29.87R
ENID/WOODRING  CLEAR     77  70  78 S7        29.84R
$$

OKZ016-021>023-033>039-044-045-200500-
SOUTHWEST OKLAHOMA

CITY           SKY/WX    TMP DP  RH WIND       PRES   REMARKS
LAWTON/REGL    CLEAR     85  65  51 SE10      29.87R
LAWTON/FT SILL CLEAR     84  66  54 S12       29.86R
FREDERICK      CLEAR     84  65  52 SE12      29.84R
CLINTON        CLEAR     83  63  50 S18       29.90R
HOBART           N/A     83  64  52 S15G24    29.88R
ALTUS AFB      PTCLDY    82  66  57 SE8       29.87R
$$

OKZ018>020-024>031-200500-
CENTRAL OKLAHOMA

CITY           SKY/WX    TMP DP  RH WIND       PRES   REMARKS
OKLAHOMA CITY  MOCLDY    82  67  60 S13       29.88R
OKC/WILEY POST PTCLDY    83  67  58 S16       29.88R
OKC/TINKER AFB MOCLDY    81  67  63 S9        29.88S
STILLWATER     CLEAR     82  69  64 S10       29.86R
GUTHRIE        CLEAR     81  70  69 S7        29.86R
$$

OKZ008-013-054>072-200500-
NORTHEAST OKLAHOMA

CITY           SKY/WX    TMP DP  RH WIND       PRES   REMARKS
TULSA          MOCLDY    86  71  60 S13       29.85R HX  91
TULSA/JONES    MOCLDY    85  70  60 S5        29.86S
PONCA CITY     CLEAR     85  68  56 S8G18     29.84R
BARTLESVILLE   PTCLDY    81  69  67 S6        29.86R
MUSKOGEE       PTCLDY    79  73  82 S6        29.88S
$$

OKZ032-040>043-046>053-073>077-200500-
SOUTH CENTRAL/SOUTHEAST OKLAHOMA

CITY           SKY/WX    TMP DP  RH WIND       PRES   REMARKS
ARDMORE/DWNTWN CLEAR     81  63  54 CALM      29.88S
MCALESTER      PTCLDY    81  72  74 S6        29.89S
$$



USA.gov is the U.S. government's official web portal to all federal, state and local government web resources and services.